When you browse on this site, cookies collect data to enhance your experience and personalize the content and advertising you see.
Visit our Privacy Policy to learn more. By continuing to use the site, you agree to this use of cookies and data.
  • In Deutschland
  • Länderverzeichnis
  • Für 7 Tage
  • Wassertemperatur
  • Wetterkarte
  • Widgets
  • user-avatar
    Anmelden

    Stündliche Wetter Ganja

    Heute, 20 November, Mittwoch

    Zeit Temperatur Niederschläge Wind Luftdruck Luftfeuchtigkeit
    00:00 +6°C° 0 mm 0 m/S 730 mmHg 52%
    01:00 +7°C° 0 mm 1 m/S 730 mmHg 52%
    02:00 +7°C° 0 mm 1 m/S 730 mmHg 52%
    03:00 +7°C° 0 mm 1 m/S 730 mmHg 53%
    04:00 +7°C° 0 mm 1 m/S 730 mmHg 52%
    05:00 +6°C° 0 mm 1 m/S 730 mmHg 52%
    06:00 +6°C° 0 mm 1 m/S 730 mmHg 52%
    07:00 +8°C° 0 mm 1 m/S 730 mmHg 47%
    08:00 +9°C° 0 mm 1 m/S 730 mmHg 43%
    09:00 +11°C° 0 mm 1 m/S 730 mmHg 38%
    10:00 +12°C° 0 mm 1 m/S 730 mmHg 38%
    11:00 +12°C° 0 mm 2 m/S 729 mmHg 39%
    12:00 +13°C° 0 mm 2 m/S 729 mmHg 39%
    13:00 +13°C° 0 mm 2 m/S 729 mmHg 41%
    14:00 +13°C° 0 mm 2 m/S 728 mmHg 43%
    15:00 +13°C° 0 mm 2 m/S 728 mmHg 45%
    16:00 +12°C° 0 mm 2 m/S 728 mmHg 51%
    17:00 +9°C° 0 mm 2 m/S 729 mmHg 57%
    18:00 +9°C° 0 mm 1 m/S 729 mmHg 62%
    19:00 +8°C° 0 mm 2 m/S 729 mmHg 65%
    20:00 +7°C° 0 mm 2 m/S 729 mmHg 68%
    21:00 +7°C° 0 mm 2 m/S 729 mmHg 70%
    22:00 +6°C° 0 mm 2 m/S 729 mmHg 73%
    23:00 +6°C° 0 mm 2 m/S 729 mmHg 76%

    Morgen, 21 November, Donnerstag

    Zeit Temperatur Niederschläge Wind Luftdruck Luftfeuchtigkeit
    00:00 +6°C° 0 mm 2 m/S 729 mmHg 79%
    01:00 +5°C° 0 mm 2 m/S 730 mmHg 81%
    02:00 +5°C° 0 mm 2 m/S 730 mmHg 83%
    03:00 +5°C° 0 mm 2 m/S 730 mmHg 84%
    04:00 +5°C° 0 mm 2 m/S 730 mmHg 84%
    05:00 +5°C° 0 mm 2 m/S 730 mmHg 83%
    06:00 +5°C° 0 mm 2 m/S 730 mmHg 83%
    07:00 +5°C° 0 mm 2 m/S 730 mmHg 80%
    08:00 +5°C° 0 mm 3 m/S 731 mmHg 78%
    09:00 +7°C° 0 mm 3 m/S 731 mmHg 76%
    10:00 +7°C° 0 mm 3 m/S 731 mmHg 75%
    11:00 +6°C° 0 mm 4 m/S 731 mmHg 74%
    12:00 +7°C° 0 mm 4 m/S 730 mmHg 74%
    13:00 +6°C° 0 mm 4 m/S 730 mmHg 75%
    14:00 +6°C° 0 mm 5 m/S 731 mmHg 76%
    15:00 +6°C° 0 mm 5 m/S 731 mmHg 77%
    16:00 +5°C° 0.1 mm 5 m/S 731 mmHg 80%
    17:00 +5°C° 0.1 mm 5 m/S 731 mmHg 82%
    18:00 +3°C° 0.1 mm 5 m/S 732 mmHg 85%
    19:00 +3°C° 0 mm 5 m/S 732 mmHg 85%
    20:00 +3°C° 0 mm 5 m/S 732 mmHg 85%
    21:00 +3°C° 0 mm 5 m/S 733 mmHg 86%
    22:00 +3°C° 0 mm 5 m/S 732 mmHg 86%
    23:00 +2°C° 0 mm 5 m/S 732 mmHg 86%

    übermorgen, 22 November, Freitag

    Zeit Temperatur Niederschläge Wind Luftdruck Luftfeuchtigkeit
    00:00 +2°C° 0 mm 5 m/S 732 mmHg 87%
    01:00 +2°C° 0 mm 5 m/S 733 mmHg 88%
    02:00 +2°C° 0 mm 5 m/S 733 mmHg 89%
    03:00 +2°C° 0 mm 5 m/S 733 mmHg 90%
    04:00 +3°C° 0.1 mm 4 m/S 733 mmHg 90%
    05:00 +1°C° 0.1 mm 4 m/S 733 mmHg 90%
    06:00 +1°C° 0.1 mm 4 m/S 733 mmHg 90%
    07:00 +1°C° 0.1 mm 4 m/S 733 mmHg 90%
    08:00 +3°C° 0.1 mm 4 m/S 734 mmHg 89%
    09:00 +3°C° 0.1 mm 4 m/S 734 mmHg 88%
    10:00 +3°C° 0.1 mm 4 m/S 734 mmHg 88%
    11:00 +3°C° 0.1 mm 4 m/S 734 mmHg 87%
    12:00 +3°C° 0.1 mm 4 m/S 734 mmHg 87%
    13:00 +3°C° 0.1 mm 4 m/S 734 mmHg 87%
    14:00 +3°C° 0.1 mm 3 m/S 734 mmHg 87%
    15:00 +3°C° 0.1 mm 3 m/S 734 mmHg 88%
    16:00 +3°C° 0.1 mm 3 m/S 734 mmHg 89%
    17:00 +3°C° 0.1 mm 3 m/S 734 mmHg 89%
    18:00 +3°C° 0.1 mm 3 m/S 735 mmHg 90%
    19:00 +2°C° 0.1 mm 3 m/S 735 mmHg 91%
    20:00 +2°C° 0.1 mm 3 m/S 735 mmHg 91%
    21:00 +2°C° 0.1 mm 3 m/S 735 mmHg 92%
    22:00 +2°C° 0.1 mm 3 m/S 735 mmHg 92%
    23:00 +2°C° 0.1 mm 3 m/S 735 mmHg 92%

    23 November, Samstag

    Zeit Temperatur Niederschläge Wind Luftdruck Luftfeuchtigkeit
    00:00 +2°C° 0.1 mm 3 m/S 736 mmHg 92%
    01:00 +3°C° 0.1 mm 2 m/S 735 mmHg 92%
    02:00 +2°C° 0.1 mm 2 m/S 735 mmHg 92%
    03:00 +2°C° 0.1 mm 2 m/S 735 mmHg 91%
    04:00 +2°C° 0 mm 2 m/S 735 mmHg 92%
    05:00 +2°C° 0 mm 2 m/S 735 mmHg 92%
    06:00 +2°C° 0 mm 2 m/S 735 mmHg 93%
    07:00 +2°C° 0.1 mm 2 m/S 735 mmHg 92%
    08:00 +2°C° 0.1 mm 2 m/S 735 mmHg 92%
    09:00 +3°C° 0.1 mm 2 m/S 736 mmHg 91%
    10:00 +2°C° 0.1 mm 3 m/S 735 mmHg 92%
    11:00 +2°C° 0.1 mm 3 m/S 735 mmHg 92%
    12:00 +2°C° 0.1 mm 3 m/S 734 mmHg 93%
    13:00 +2°C° 0.1 mm 3 m/S 734 mmHg 93%
    14:00 +3°C° 0.1 mm 2 m/S 734 mmHg 93%
    15:00 +3°C° 0.1 mm 2 m/S 734 mmHg 94%
    16:00 +3°C° 0 mm 2 m/S 734 mmHg 94%
    17:00 +3°C° 0 mm 1 m/S 734 mmHg 94%
    18:00 +3°C° 0 mm 1 m/S 734 mmHg 94%
    19:00 +3°C° 0 mm 1 m/S 735 mmHg 94%
    20:00 +3°C° 0 mm 1 m/S 735 mmHg 95%
    21:00 +3°C° 0 mm 1 m/S 735 mmHg 95%
    22:00 +3°C° 0 mm 1 m/S 735 mmHg 95%
    23:00 +3°C° 0 mm 1 m/S 735 mmHg 94%

    24 November, Sonntag

    Zeit Temperatur Niederschläge Wind Luftdruck Luftfeuchtigkeit
    00:00 +3°C° 0 mm 1 m/S 735 mmHg 93%
    01:00 +3°C° 0 mm 1 m/S 735 mmHg 93%
    02:00 +3°C° 0 mm 1 m/S 734 mmHg 93%
    03:00 +3°C° 0 mm 1 m/S 734 mmHg 93%
    04:00 +3°C° 0 mm 1 m/S 734 mmHg 93%
    05:00 +3°C° 0 mm 1 m/S 734 mmHg 92%
    06:00 +3°C° 0 mm 1 m/S 734 mmHg 91%
    07:00 +3°C° 0 mm 1 m/S 734 mmHg 88%
    08:00 +4°C° 0 mm 1 m/S 734 mmHg 84%
    09:00 +4°C° 0 mm 1 m/S 734 mmHg 80%
    10:00 +5°C° 0 mm 1 m/S 733 mmHg 76%
    11:00 +5°C° 0 mm 2 m/S 733 mmHg 72%
    12:00 +5°C° 0 mm 2 m/S 732 mmHg 68%
    13:00 +6°C° 0 mm 2 m/S 732 mmHg 67%
    14:00 +7°C° 0 mm 1 m/S 732 mmHg 66%
    15:00 +7°C° 0 mm 1 m/S 731 mmHg 65%
    16:00 +6°C° 0 mm 1 m/S 732 mmHg 68%
    17:00 +5°C° 0 mm 1 m/S 732 mmHg 71%
    18:00 +5°C° 0 mm 1 m/S 732 mmHg 73%
    19:00 +4°C° 0 mm 1 m/S 732 mmHg 75%
    20:00 +4°C° 0 mm 1 m/S 732 mmHg 76%
    21:00 +4°C° 0 mm 1 m/S 732 mmHg 77%
    22:00 +4°C° 0 mm 1 m/S 732 mmHg 77%
    23:00 +4°C° 0 mm 1 m/S 732 mmHg 77%

    25 November, Montag

    Zeit Temperatur Niederschläge Wind Luftdruck Luftfeuchtigkeit
    00:00 +4°C° 0 mm 1 m/S 732 mmHg 77%
    01:00 +4°C° 0 mm 1 m/S 731 mmHg 77%
    02:00 +4°C° 0 mm 1 m/S 731 mmHg 78%
    03:00 +2°C° 0 mm 2 m/S 731 mmHg 78%
    04:00 +2°C° 0 mm 2 m/S 731 mmHg 78%
    05:00 +2°C° 0 mm 2 m/S 731 mmHg 78%
    06:00 +3°C° 0 mm 1 m/S 731 mmHg 77%
    07:00 +3°C° 0 mm 2 m/S 731 mmHg 74%
    08:00 +4°C° 0 mm 2 m/S 731 mmHg 71%
    09:00 +5°C° 0 mm 2 m/S 731 mmHg 68%
    10:00 +5°C° 0 mm 2 m/S 731 mmHg 66%
    11:00 +6°C° 0 mm 2 m/S 730 mmHg 64%
    12:00 +8°C° 0 mm 1 m/S 730 mmHg 62%
    13:00 +8°C° 0 mm 1 m/S 730 mmHg 61%
    14:00 +8°C° 0 mm 1 m/S 730 mmHg 61%
    15:00 +9°C° 0 mm 1 m/S 730 mmHg 60%
    16:00 +8°C° 0 mm 1 m/S 730 mmHg 64%
    17:00 +6°C° 0 mm 0 m/S 730 mmHg 67%
    18:00 +5°C° 0 mm 0 m/S 730 mmHg 70%
    19:00 +4°C° 0 mm 0 m/S 730 mmHg 72%
    20:00 +4°C° 0 mm 0 m/S 730 mmHg 73%
    21:00 +4°C° 0 mm 0 m/S 730 mmHg 74%
    22:00 +3°C° 0 mm 0 m/S 730 mmHg 75%
    23:00 +3°C° 0 mm 0 m/S 730 mmHg 76%
    Mehr zeigen